sat.trackr.live / text

‹ back to catalog

ICEYE-X73

NORAD 68496 · 2026-067CJ

PAYLOAD ACTIVE UNKNOWN

§ Identity

Operator
Country
POR
Launch date
2026-03-30
Launch site
AFWTR
Launch vehicle
Mass (kg)
RCS (m²)

External: N2YO · Heavens-Above · Gunter

§ Orbital elements

Epoch: 2026-05-24T21:32:32.429184Z

Period
96.51 min
Inclination
97.7598°
Eccentricity
0.0003002
Mean motion
14.92087220 rev/d
Perigee alt
589.3 km
Apogee alt
593.5 km
Semi-major
6,969.6 km
B*
2.3311e-4
RAAN
103.5413°
Arg perigee
55.0706°
Mean anomaly
305.0795°
Rev number
825

§ Raw data

ICEYE-X731 68496U 26067CJ  26144.89759756  .00002312  00000+0  23311-3 0  99972 68496  97.7598 103.5413 0003002  55.0706 305.0795 14.92087220  8254

JSON: /api/v1/satellites/68496 · /tle

For live sub-satellite position, see the globe view (requires WebGL).

§ Visibility from observer

Set your observer location to see the next 7 days of passes ≥ 10°. The values pass through the URL so the page stays shareable.

No JS? Fill the form by hand. The geolocation button needs JavaScript.